TimeCST,TemperatureF,Dew PointF,Humidity,Sea Level PressureIn,VisibilityMPH,Wind Direction,Wind SpeedMPH,Gust SpeedMPH,PrecipitationIn,Events,Conditions,WindDirDegrees,DateUTC
12:56 AM,69.1,66.9,93,29.86,10.0,SSE,10.4,-,N/A,,Clear,160,2012-12-07 06:56:00
1:56 AM,69.1,66.9,93,29.85,10.0,SSE,6.9,-,N/A,,Clear,150,2012-12-07 07:56:00
2:56 AM,68.0,66.9,96,29.84,10.0,SSE,6.9,-,N/A,,Clear,150,2012-12-07 08:56:00
3:56 AM,68.0,66.9,96,29.84,10.0,SE,5.8,-,N/A,,Clear,140,2012-12-07 09:56:00
4:56 AM,-9999,-9999,N/A,29.83,10.0,SSE,4.6,-,N/A,,Clear,150,2012-12-07 10:56:00
5:56 AM,67.8,65.1,91,29.84,10.0,SE,4.6,-,N/A,,Mostly Cloudy,140,2012-12-07 11:56:00
6:56 AM,69.4,65.1,86,29.85,10.0,SE,6.9,-,N/A,,Mostly Cloudy,140,2012-12-07 12:56:00
7:56 AM,71.2,67.3,87,29.86,10.0,SSE,8.1,-,N/A,,Overcast,150,2012-12-07 13:56:00
8:56 AM,73.0,69.1,87,29.87,10.0,SSE,8.1,-,N/A,,Overcast,160,2012-12-07 14:56:00
9:56 AM,75.9,70.0,82,29.88,10.0,South,10.4,-,N/A,,Overcast,170,2012-12-07 15:56:00
10:56 AM,78.1,69.1,74,29.88,10.0,SSE,15.0,-,N/A,,Mostly Cloudy,160,2012-12-07 16:56:00
11:56 AM,80.1,68.0,67,29.86,10.0,South,15.0,24.2,N/A,,Mostly Cloudy,170,2012-12-07 17:56:00
12:56 PM,79.0,66.9,66,29.81,10.0,South,17.3,24.2,N/A,,Mostly Cloudy,180,2012-12-07 18:56:00
1:56 PM,80.1,68.0,67,29.80,10.0,SSE,17.3,21.9,N/A,,Mostly Cloudy,160,2012-12-07 19:56:00
2:56 PM,79.0,68.0,69,29.78,10.0,SSE,17.3,-,N/A,,Mostly Cloudy,150,2012-12-07 20:56:00
3:56 PM,77.0,68.0,74,29.77,10.0,SSE,15.0,23.0,N/A,,Mostly Cloudy,150,2012-12-07 21:56:00
4:56 PM,75.0,68.0,79,29.78,10.0,SE,13.8,-,N/A,,Mostly Cloudy,140,2012-12-07 22:56:00
5:56 PM,73.0,69.1,87,29.79,10.0,SE,12.7,-,N/A,,Scattered Clouds,140,2012-12-07 23:56:00
6:56 PM,73.0,69.1,87,29.80,10.0,SE,12.7,-,N/A,,Scattered Clouds,140,2012-12-08 00:56:00
7:56 PM,73.0,69.1,87,29.82,10.0,SSE,12.7,-,N/A,,Clear,160,2012-12-08 01:56:00
8:56 PM,73.0,69.1,87,29.83,10.0,SSE,13.8,-,N/A,,Clear,160,2012-12-08 02:56:00
9:56 PM,71.1,69.1,93,29.86,10.0,SSE,8.1,-,N/A,,Clear,160,2012-12-08 03:56:00
10:56 PM,71.1,69.1,93,29.85,10.0,SSE,8.1,-,N/A,,Partly Cloudy,160,2012-12-08 04:56:00
11:56 PM,72.0,69.1,91,29.83,10.0,SSE,8.1,-,N/A,,Partly Cloudy,150,2012-12-08 05:56:00